Weather in Skriveri

Latvia     56°38′44″N   25°07′22″E
temp.,
°C
wind,
m/s
gust,
m/s
humid.,
%
clouds,
%
prec.,
mm/h
press.,
hPa
HPBL,
m
27 october, wed
wed2700:00+7sw41195100 2.1 1012513
03:00+8wsw41096100 2.2 1012602
06:00+7wsw4119675 0.1 1013535
09:00+7wsw4109269 0.1 1014599
12:00+9wsw4108222 0.0 1015685
15:00+10sw51082100 0.0 10131005
18:00+9ssw61493100 3.2 1010962
21:00+10wsw61695100 7.6 10081186
28 october, thu
thu2800:00+12w61493100 1.6 10091004
03:00+12w51294100 1.8 1010970
06:00+12w41191100 0.3 1012767
09:00+11wnw399599 0.5 1015674
12:00+12nw358169 0.1 1018640
15:00+12w238097 0.1 1020437
18:00+11sw2384100 0.0 102171
21:00+10ssw2697100 0.0 1021150
29 october, fri
fri2900:00+11sw3896100 0.0 1022421
03:00+11ssw3891100 0.0 1022403
06:00+8ssw3997100 0.0 1023240
09:00+8s3997100 0.0 1023247
12:00+11s4108474 0.0 1023405
15:00+13s4107919 0.0 1022546
18:00+11s4118820 0.0 1022417
21:00+11s4149175 0.0 1021503
30 october, sat
sat3000:00+10s4149370 0.0 1021551
03:00+9sse4129435 0.0 1020461
06:00+9sse41293100 0.0 1019407
09:00+8sse414915 0.0 1018446
12:00+11s51477100 0.0 1017625
15:00+13s511697 0.0 1016812
18:00+11s513755 0.0 1016578
21:00+10ssw514765 0.0 1017557
31 october, sun
sun3100:00+9ssw41174100 0.0 1017393
03:00+7s278481 0.0 1018172
05:00+6s258634 0.0 101892
08:00+6sse26875 0.0 1018133
11:00+10sse3870100 0.0 1017290
14:00+11sse3966100 0.0 1014493
17:00+9se41278100 0.0 1013354
20:00+10sse41376100 0.0 1011499